Time,TemperatureF,DewpointF,PressureIn,WindDirection,WindDirectionDegrees,WindSpeedMPH,WindSpeedGustMPH,Humidity,HourlyPrecipIn,Conditions,Clouds,dailyrainin,SoftwareType,DateUTC
2013-02-27 00:02:00,43.0,38.0,29.77,West,263,5.0,11.0,83,0.00,,,0.02,,2013-02-27 06:02:00,
2013-02-27 00:11:00,43.0,38.0,29.77,West,263,5.0,11.0,83,0.00,,,0.02,,2013-02-27 06:11:00,
2013-02-27 00:21:00,43.0,38.0,29.78,WNW,290,5.0,11.0,82,0.00,,,0.46,,2013-02-27 06:21:00,
2013-02-27 00:32:00,43.0,38.0,29.78,West,267,5.0,10.0,82,0.00,,,0.46,,2013-02-27 06:32:00,
2013-02-27 00:41:00,43.0,38.0,29.78,West,267,5.0,10.0,82,0.00,,,0.46,,2013-02-27 06:41:00,
2013-02-27 00:52:00,43.0,38.0,29.78,West,270,4.0,8.0,82,0.00,,,0.46,,2013-02-27 06:52:00,
2013-02-27 01:01:00,43.0,38.0,29.79,NNE,14,5.0,11.0,82,0.00,,,0.46,,2013-02-27 07:01:00,
2013-02-27 01:12:00,43.0,38.0,29.79,NNE,14,5.0,11.0,82,0.00,,,0.46,,2013-02-27 07:12:00,
2013-02-27 01:21:00,43.0,38.0,29.79,WSW,256,4.0,12.0,81,0.00,,,0.46,,2013-02-27 07:21:00,
2013-02-27 01:31:00,43.0,38.0,29.80,West,260,4.0,9.0,82,0.00,,,0.46,,2013-02-27 07:31:00,
2013-02-27 01:41:00,43.0,38.0,29.80,West,260,4.0,9.0,82,0.00,,,0.46,,2013-02-27 07:41:00,
2013-02-27 01:52:00,43.0,37.0,29.80,West,274,8.0,10.0,80,0.00,,,0.46,,2013-02-27 07:52:00,
2013-02-27 02:01:00,43.0,37.0,29.80,West,270,11.0,15.0,80,0.00,,,0.46,,2013-02-27 08:01:00,
2013-02-27 02:11:00,43.0,37.0,29.80,West,270,11.0,15.0,80,0.00,,,0.46,,2013-02-27 08:11:00,
2013-02-27 02:21:00,43.0,37.0,29.80,West,259,7.0,15.0,80,0.00,,,0.46,,2013-02-27 08:21:00,
2013-02-27 02:31:00,43.0,37.0,29.80,West,273,5.0,12.0,80,0.00,,,0.46,,2013-02-27 08:31:00,
2013-02-27 02:41:00,43.0,37.0,29.80,West,273,5.0,12.0,80,0.00,,,0.46,,2013-02-27 08:41:00,
2013-02-27 02:53:00,42.0,37.0,29.80,WNW,295,5.0,11.0,81,0.00,,,0.46,,2013-02-27 08:53:00,
2013-02-27 03:01:00,43.0,38.0,29.81,West,266,3.0,8.0,81,0.00,,,0.46,,2013-02-27 09:01:00,
2013-02-27 03:11:00,43.0,38.0,29.81,West,266,3.0,8.0,81,0.00,,,0.46,,2013-02-27 09:11:00,
2013-02-27 03:21:00,43.0,38.0,29.81,WNW,287,5.0,7.0,81,0.00,,,0.46,,2013-02-27 09:21:00,
2013-02-27 03:32:00,43.0,38.0,29.81,West,278,4.0,6.0,81,0.00,,,0.46,,2013-02-27 09:32:00,
2013-02-27 03:41:00,43.0,38.0,29.81,West,278,4.0,6.0,81,0.00,,,0.46,,2013-02-27 09:41:00,
2013-02-27 03:52:00,43.0,38.0,29.81,WNW,295,3.0,6.0,82,0.00,,,0.46,,2013-02-27 09:52:00,
2013-02-27 04:01:00,42.0,37.0,29.82,West,270,1.0,6.0,82,0.00,,,0.46,,2013-02-27 10:01:00,
2013-02-27 04:12:00,42.0,37.0,29.82,West,270,1.0,6.0,82,0.00,,,0.46,,2013-02-27 10:12:00,
2013-02-27 04:21:00,42.0,37.0,29.82,WSW,249,2.0,4.0,82,0.00,,,0.46,,2013-02-27 10:21:00,
2013-02-27 04:32:00,42.0,37.0,29.82,West,266,4.0,7.0,82,0.00,,,0.46,,2013-02-27 10:32:00,
2013-02-27 04:42:00,42.0,37.0,29.82,West,266,4.0,7.0,82,0.00,,,0.46,,2013-02-27 10:42:00,
2013-02-27 04:53:00,42.0,37.0,29.82,WSW,249,5.0,6.0,82,0.00,,,0.46,,2013-02-27 10:53:00,
2013-02-27 05:02:00,42.0,37.0,29.82,West,263,4.0,6.0,82,0.00,,,0.46,,2013-02-27 11:02:00,
2013-02-27 05:12:00,42.0,37.0,29.82,West,263,4.0,6.0,82,0.00,,,0.46,,2013-02-27 11:12:00,
2013-02-27 05:22:00,42.0,36.0,29.82,West,278,5.0,7.0,80,0.00,,,0.46,,2013-02-27 11:22:00,
2013-02-27 05:32:00,42.0,36.0,29.82,West,281,5.0,10.0,80,0.00,,,0.46,,2013-02-27 11:32:00,
2013-02-27 05:41:00,42.0,36.0,29.82,West,281,5.0,10.0,80,0.00,,,0.46,,2013-02-27 11:41:00,
2013-02-27 05:52:00,42.0,37.0,29.83,WNW,298,2.0,7.0,81,0.00,,,0.46,,2013-02-27 11:52:00,
2013-02-27 06:02:00,42.0,37.0,29.83,West,262,4.0,7.0,81,0.00,,,0.46,,2013-02-27 12:02:00,
2013-02-27 06:12:00,42.0,37.0,29.83,West,262,4.0,7.0,81,0.00,,,0.46,,2013-02-27 12:12:00,
2013-02-27 06:22:00,42.0,37.0,29.84,West,274,4.0,9.0,81,0.00,,,0.46,,2013-02-27 12:22:00,
2013-02-27 06:32:00,42.0,37.0,29.84,WNW,288,2.0,10.0,81,0.00,,,0.46,,2013-02-27 12:32:00,
2013-02-27 06:42:00,42.0,37.0,29.84,WNW,288,2.0,10.0,81,0.00,,,0.46,,2013-02-27 12:42:00,
2013-02-27 06:52:00,42.0,37.0,29.85,WNW,294,3.0,7.0,81,0.00,,,0.46,,2013-02-27 12:52:00,
2013-02-27 07:02:00,42.0,37.0,29.85,WSW,245,0.0,6.0,81,0.00,,,0.46,,2013-02-27 13:02:00,
2013-02-27 07:11:00,42.0,37.0,29.85,WSW,245,0.0,6.0,81,0.00,,,0.46,,2013-02-27 13:11:00,
2013-02-27 07:22:00,42.0,37.0,29.86,West,277,2.0,6.0,82,0.00,,,0.46,,2013-02-27 13:22:00,
2013-02-27 07:32:00,42.0,37.0,29.87,WNW,295,3.0,8.0,82,0.00,,,0.46,,2013-02-27 13:32:00,
2013-02-27 07:42:00,42.0,37.0,29.87,WNW,295,3.0,8.0,82,0.00,,,0.46,,2013-02-27 13:42:00,
2013-02-27 07:52:00,42.0,37.0,29.87,NW,308,6.0,12.0,82,0.00,,,0.46,,2013-02-27 13:52:00,
2013-02-27 08:02:00,42.0,37.0,29.88,WNW,288,6.0,10.0,81,0.00,,,0.46,,2013-02-27 14:02:00,
2013-02-27 08:12:00,42.0,37.0,29.88,WNW,288,6.0,10.0,81,0.00,,,0.46,,2013-02-27 14:12:00,
2013-02-27 08:21:00,42.0,37.0,29.88,West,277,9.0,10.0,81,0.00,,,0.46,,2013-02-27 14:21:00,
2013-02-27 08:32:00,43.0,37.0,29.88,WNW,293,6.0,9.0,80,0.00,,,0.46,,2013-02-27 14:32:00,
2013-02-27 08:42:00,43.0,37.0,29.88,WNW,293,6.0,9.0,80,0.00,,,0.46,,2013-02-27 14:42:00,
2013-02-27 08:52:00,43.0,37.0,29.88,West,269,6.0,9.0,80,0.00,,,0.46,,2013-02-27 14:52:00,
2013-02-27 09:02:00,44.0,37.0,29.88,WNW,291,7.0,12.0,76,0.00,,,0.46,,2013-02-27 15:02:00,
2013-02-27 09:12:00,44.0,37.0,29.88,WNW,291,7.0,12.0,76,0.00,,,0.46,,2013-02-27 15:12:00,
2013-02-27 09:22:00,45.0,38.0,29.88,West,278,6.0,12.0,76,0.00,,,0.46,,2013-02-27 15:22:00,
2013-02-27 09:32:00,44.0,37.0,29.88,West,281,7.0,13.0,76,0.00,,,0.46,,2013-02-27 15:32:00,
2013-02-27 09:42:00,44.0,37.0,29.88,West,281,7.0,13.0,76,0.00,,,0.46,,2013-02-27 15:42:00,
2013-02-27 09:52:00,45.0,38.0,29.88,West,274,5.0,14.0,75,0.00,,,0.46,,2013-02-27 15:52:00,
2013-02-27 10:02:00,47.0,39.0,29.88,WNW,288,4.0,11.0,73,0.00,,,0.46,,2013-02-27 16:02:00,
2013-02-27 10:12:00,47.0,39.0,29.88,WNW,288,4.0,11.0,73,0.00,,,0.46,,2013-02-27 16:12:00,
2013-02-27 10:22:00,46.0,39.0,29.87,NW,315,2.0,13.0,75,0.00,,,0.46,,2013-02-27 16:22:00,
2013-02-27 10:32:00,47.0,39.0,29.87,West,281,2.0,10.0,73,0.00,,,0.46,,2013-02-27 16:32:00,
2013-02-27 10:42:00,47.0,39.0,29.87,West,281,2.0,10.0,73,0.00,,,0.46,,2013-02-27 16:42:00,
2013-02-27 10:52:00,48.0,39.0,29.87,WSW,246,6.0,9.0,71,0.00,,,0.46,,2013-02-27 16:52:00,
2013-02-27 11:01:00,48.0,39.0,29.86,WNW,283,0.0,14.0,71,0.00,,,0.46,,2013-02-27 17:01:00,
2013-02-27 11:11:00,48.0,39.0,29.86,WNW,283,0.0,14.0,71,0.00,,,0.46,,2013-02-27 17:11:00,
2013-02-27 11:21:00,49.0,39.0,29.85,West,267,6.0,11.0,67,0.00,,,0.46,,2013-02-27 17:21:00,
2013-02-27 11:32:00,50.0,40.0,29.86,WSW,256,5.0,8.0,68,0.00,,,0.46,,2013-02-27 17:32:00,
2013-02-27 11:42:00,50.0,40.0,29.86,WSW,256,5.0,8.0,68,0.00,,,0.46,,2013-02-27 17:42:00,
2013-02-27 11:52:00,50.0,39.0,29.85,West,271,6.0,15.0,66,0.00,,,0.46,,2013-02-27 17:52:00,
2013-02-27 12:01:00,52.0,41.0,29.85,WNW,291,6.0,9.0,65,0.00,,,0.46,,2013-02-27 18:01:00,
2013-02-27 12:11:00,52.0,41.0,29.85,WNW,291,6.0,9.0,65,0.00,,,0.46,,2013-02-27 18:11:00,
2013-02-27 12:22:00,52.0,40.0,29.85,WSW,248,5.0,13.0,63,0.00,,,0.46,,2013-02-27 18:22:00,
2013-02-27 12:32:00,52.0,39.0,29.84,WNW,290,2.0,11.0,62,0.00,,,0.46,,2013-02-27 18:32:00,
2013-02-27 12:42:00,52.0,39.0,29.84,WNW,290,2.0,11.0,62,0.00,,,0.46,,2013-02-27 18:42:00,
2013-02-27 12:52:00,52.0,39.0,29.83,WSW,240,8.0,22.0,62,0.00,,,0.46,,2013-02-27 18:52:00,
2013-02-27 13:01:00,54.0,41.0,29.83,WNW,302,8.0,15.0,61,0.00,,,0.46,,2013-02-27 19:01:00,
2013-02-27 13:12:00,54.0,41.0,29.83,WNW,302,8.0,15.0,61,0.00,,,0.46,,2013-02-27 19:12:00,
2013-02-27 13:21:00,54.0,41.0,29.82,West,271,8.0,17.0,61,0.00,,,0.46,,2013-02-27 19:21:00,
2013-02-27 13:32:00,55.0,40.0,29.82,NW,321,7.0,16.0,57,0.00,,,0.46,,2013-02-27 19:32:00,
2013-02-27 13:42:00,55.0,40.0,29.82,NW,321,7.0,16.0,57,0.00,,,0.46,,2013-02-27 19:42:00,
2013-02-27 13:52:00,55.0,40.0,29.82,WNW,288,9.0,18.0,57,0.00,,,0.46,,2013-02-27 19:52:00,
2013-02-27 14:01:00,57.0,41.0,29.81,NW,304,6.0,15.0,55,0.00,,,0.46,,2013-02-27 20:01:00,
2013-02-27 14:11:00,57.0,41.0,29.81,NW,304,6.0,15.0,55,0.00,,,0.46,,2013-02-27 20:11:00,
2013-02-27 14:21:00,56.0,41.0,29.81,NW,318,12.0,18.0,57,0.00,,,0.46,,2013-02-27 20:21:00,
2013-02-27 14:32:00,56.0,41.0,29.81,NNW,330,6.0,16.0,57,0.00,,,0.46,,2013-02-27 20:32:00,
2013-02-27 14:42:00,56.0,41.0,29.81,NNW,330,6.0,16.0,57,0.00,,,0.46,,2013-02-27 20:42:00,
2013-02-27 14:52:00,56.0,41.0,29.81,NW,316,9.0,12.0,56,0.00,,,0.46,,2013-02-27 20:52:00,
2013-02-27 15:02:00,55.0,41.0,29.81,North,359,10.0,21.0,58,0.00,,,0.46,,2013-02-27 21:02:00,
2013-02-27 15:11:00,55.0,41.0,29.81,North,359,10.0,21.0,58,0.00,,,0.46,,2013-02-27 21:11:00,
2013-02-27 15:21:00,55.0,41.0,29.81,NW,311,8.0,16.0,59,0.00,,,0.46,,2013-02-27 21:21:00,
2013-02-27 15:31:00,56.0,41.0,29.81,WSW,255,8.0,13.0,57,0.00,,,0.46,,2013-02-27 21:31:00,
2013-02-27 15:42:00,56.0,41.0,29.81,WSW,255,8.0,13.0,57,0.00,,,0.46,,2013-02-27 21:42:00,
2013-02-27 15:52:00,56.0,40.0,29.80,West,270,9.0,17.0,54,0.00,,,0.46,,2013-02-27 21:52:00,
2013-02-27 16:01:00,56.0,41.0,29.80,NW,305,7.0,13.0,57,0.00,,,0.46,,2013-02-27 22:01:00,
2013-02-27 16:11:00,56.0,41.0,29.80,NW,305,7.0,13.0,57,0.00,,,0.46,,2013-02-27 22:11:00,
2013-02-27 16:21:00,55.0,41.0,29.81,WNW,294,6.0,15.0,58,0.00,,,0.46,,2013-02-27 22:21:00,
2013-02-27 16:31:00,55.0,41.0,29.81,NNW,342,6.0,20.0,59,0.00,,,0.46,,2013-02-27 22:31:00,
2013-02-27 16:41:00,55.0,41.0,29.81,NNW,342,6.0,20.0,59,0.00,,,0.46,,2013-02-27 22:41:00,
2013-02-27 16:52:00,54.0,40.0,29.81,West,263,5.0,13.0,60,0.00,,,0.46,,2013-02-27 22:52:00,
2013-02-27 17:01:00,54.0,41.0,29.82,NW,304,10.0,12.0,61,0.00,,,0.46,,2013-02-27 23:01:00,
2013-02-27 17:11:00,54.0,41.0,29.82,NW,304,10.0,12.0,61,0.00,,,0.46,,2013-02-27 23:11:00,
2013-02-27 17:21:00,54.0,41.0,29.83,WNW,283,7.0,19.0,62,0.00,,,0.46,,2013-02-27 23:21:00,
2013-02-27 17:32:00,53.0,40.0,29.83,West,281,7.0,16.0,62,0.00,,,0.46,,2013-02-27 23:32:00,
2013-02-27 17:42:00,53.0,40.0,29.83,West,281,7.0,16.0,62,0.00,,,0.46,,2013-02-27 23:42:00,
2013-02-27 17:53:00,53.0,41.0,29.84,NW,311,3.0,14.0,63,0.00,,,0.46,,2013-02-27 23:53:00,
2013-02-27 18:01:00,52.0,41.0,29.85,NNW,333,6.0,9.0,66,0.00,,,0.46,,2013-02-28 00:01:00,
2013-02-27 18:11:00,52.0,41.0,29.85,NNW,333,6.0,9.0,66,0.00,,,0.46,,2013-02-28 00:11:00,
2013-02-27 18:21:00,51.0,42.0,29.85,North,3,7.0,15.0,70,0.00,,,0.46,,2013-02-28 00:21:00,
2013-02-27 18:32:00,50.0,41.0,29.86,NNE,23,7.0,12.0,72,0.00,,,0.46,,2013-02-28 00:32:00,
2013-02-27 18:42:00,50.0,41.0,29.86,NNE,23,7.0,12.0,72,0.00,,,0.46,,2013-02-28 00:42:00,
2013-02-27 18:52:00,50.0,41.0,29.87,North,7,6.0,15.0,72,0.00,,,0.46,,2013-02-28 00:52:00,
2013-02-27 19:01:00,49.0,41.0,29.88,North,359,6.0,11.0,74,0.00,,,0.46,,2013-02-28 01:01:00,
2013-02-27 19:11:00,49.0,41.0,29.88,North,359,6.0,11.0,74,0.00,,,0.46,,2013-02-28 01:11:00,
2013-02-27 19:21:00,48.0,40.0,29.89,NW,322,5.0,16.0,75,0.00,,,0.46,,2013-02-28 01:21:00,
2013-02-27 19:31:00,47.0,40.0,29.89,NNW,328,4.0,11.0,76,0.00,,,0.46,,2013-02-28 01:31:00,
2013-02-27 19:41:00,47.0,40.0,29.89,NNW,328,4.0,11.0,76,0.00,,,0.46,,2013-02-28 01:41:00,
2013-02-27 19:52:00,46.0,40.0,29.89,North,359,4.0,8.0,78,0.00,,,0.46,,2013-02-28 01:52:00,
2013-02-27 20:01:00,46.0,40.0,29.89,NNE,21,1.0,8.0,79,0.00,,,0.46,,2013-02-28 02:01:00,
2013-02-27 20:11:00,46.0,40.0,29.89,NNE,21,1.0,8.0,79,0.00,,,0.46,,2013-02-28 02:11:00,
2013-02-27 20:22:00,46.0,40.0,29.90,WNW,291,2.0,8.0,79,0.00,,,0.46,,2013-02-28 02:22:00,
2013-02-27 20:31:00,45.0,41.0,29.91,North,8,5.0,15.0,86,0.00,,,0.46,,2013-02-28 02:31:00,
2013-02-27 20:41:00,45.0,41.0,29.91,North,8,5.0,15.0,86,0.00,,,0.46,,2013-02-28 02:41:00,
2013-02-27 20:52:00,45.0,41.0,29.91,North,8,5.0,15.0,86,0.00,,,0.46,,2013-02-28 02:52:00,
2013-02-27 21:01:00,44.0,41.0,29.91,NW,322,4.0,7.0,89,0.00,,,0.46,,2013-02-28 03:01:00,
2013-02-27 21:11:00,44.0,41.0,29.91,NW,322,4.0,7.0,89,0.00,,,0.46,,2013-02-28 03:11:00,
2013-02-27 21:21:00,44.0,40.0,29.91,West,278,5.0,8.0,87,0.00,,,0.46,,2013-02-28 03:21:00,
2013-02-27 21:31:00,44.0,40.0,29.92,NW,307,4.0,13.0,86,0.00,,,0.46,,2013-02-28 03:31:00,
2013-02-27 21:41:00,44.0,40.0,29.92,NW,307,4.0,13.0,86,0.00,,,0.46,,2013-02-28 03:41:00,
2013-02-27 21:52:00,44.0,40.0,29.91,West,276,1.0,7.0,87,0.00,,,0.46,,2013-02-28 03:52:00,
2013-02-27 22:01:00,44.0,40.0,29.91,NE,56,2.0,6.0,86,0.00,,,0.46,,2013-02-28 04:01:00,
2013-02-27 22:11:00,44.0,40.0,29.91,NE,56,2.0,6.0,86,0.00,,,0.46,,2013-02-28 04:11:00,
2013-02-27 22:21:00,44.0,40.0,29.91,WNW,291,1.0,5.0,87,0.00,,,0.46,,2013-02-28 04:21:00,
2013-02-27 22:31:00,44.0,40.0,29.91,NW,311,3.0,3.0,86,0.00,,,0.46,,2013-02-28 04:31:00,
2013-02-27 22:42:00,44.0,40.0,29.91,NW,311,3.0,3.0,86,0.00,,,0.46,,2013-02-28 04:42:00,
2013-02-27 22:52:00,44.0,40.0,29.91,WNW,288,0.0,1.0,86,0.00,,,0.46,,2013-02-28 04:52:00,
2013-02-27 23:01:00,44.0,40.0,29.90,North,350,0.0,3.0,87,0.00,,,0.46,,2013-02-28 05:01:00,
2013-02-27 23:11:00,44.0,40.0,29.90,North,350,0.0,3.0,87,0.00,,,0.46,,2013-02-28 05:11:00,
2013-02-27 23:22:00,44.0,40.0,29.90,West,270,1.0,4.0,86,0.00,,,0.46,,2013-02-28 05:22:00,
2013-02-27 23:31:00,43.0,38.0,29.89,NW,311,3.0,5.0,84,0.00,,,0.46,,2013-02-28 05:31:00,
2013-02-27 23:42:00,43.0,38.0,29.89,NW,311,3.0,5.0,84,0.00,,,0.46,,2013-02-28 05:42:00,
2013-02-27 23:52:00,43.0,38.0,29.89,NW,316,3.0,6.0,83,0.00,,,0.46,,2013-02-28 05:52:00,